Location: Unspecified
(0.0000°N, 0.0000°E)
Time: 19:17:06
(UTC+00:00)

Altair - Pass Details

Date: 26 November 2019
Orbit: 1502 x 1682 km, 47.2° (Epoch: 05 December)

Event Time Altitude Azimuth Distance (km) Brightness Sun altitude
Rises 09:31:16 0° 324° (NW) 4,699 9.7 50.8°
Reaches altitude 10° 09:34:17 10° 325° (NW) 3,739 9.3 51.4°
Maximum altitude 09:43:48 77° 51° (NE) 1,640 8.8 53.3°
Drops below altitude 10° 09:53:44 10° 136° (SE) 3,890 10.4 55.3°
Sets 09:56:55 0° 137° (SE) 4,897 10.7 55.9°
